Weather History for Haleyville, AL

Change the Weather History Date:

Wednesday, February 1, 2012

  Actual Average (KJFX) Record (KJFX)
Temperature  
Mean Temperature 56 °F -  
Max Temperature 61 °F 55 °F 73 °F (1962)
Min Temperature 51 °F 29 °F 13 °F (1977)
Degree Days  
Heating Degree Days 9    
Growing Degree Days 6 (Base 50)    
Moisture  
Dew Point 57 °F    
Average Humidity 100    
Maximum Humidity 100    
Minimum Humidity 88    
Precipitation  
Precipitation 0.14 in - - ()
Sea Level Pressure  
Sea Level Pressure 30.16 in    
Wind  
Wind Speed 4 mph (SSE)    
Max Wind Speed 14 mph    
Max Gust Speed 30 mph    
Visibility 4 miles    
Events Fog , Rain , Thunderstorm    
Averages and records for this station are not official NWS values.
T = Trace of Precipitation, MM = Missing Value Source: NWS Daily Summary

Daily Weather History Graph

Daily Weather History Graph

Search for Another Location

Airport:

Trip Planner

Search our weather history database for the weather conditions in past years. The results will help you decide how hot, cold, wet, or windy it might be!

Date:

Astronomy

Feb. 01, 2012 Rise Set
Actual Time 6:48 AM CST 5:20 PM CST
Civil Twilight 6:21 AM CST 5:46 PM CST
Nautical Twilight 5:51 AM CST 6:16 PM CST
Astronomical Twilight 5:22 AM CST 6:46 PM CST
Moon 11:51 AM CST (2/1) 1:30 AM CST (2/1)
Length of Visible Light 11h 24m
Length of Day
10h 31m
Waxing Gibbous, 65% of the Moon is Illuminated
Feb 1
Waxing Gibbous
Feb 7
Full
Feb 14
Last Quarter
Feb 21
New
Feb 29
First Quarter

Hourly Weather History & Observations

Time (CST) Temp. Dew Point Humidity Pressure Visibility Wind Dir Wind Speed Gust Speed Precip Events Conditions
12:04 AM 55.4 °F 51.8 °F 88% 30.22 in 4.0 mi North - - 0.01 in Rain Rain
12:13 AM 55.4 °F 51.8 °F 88% 30.22 in 7.0 mi North - - 0.01 in Rain Light Rain
12:19 AM 55.4 °F 53.6 °F 94% 30.22 in 10.0 mi North - - 0.01 in   Mostly Cloudy
12:56 AM 54.9 °F 54.0 °F 97% 30.25 in 10.0 mi North - - 0.01 in   Mostly Cloudy
1:33 AM 55.4 °F 55.4 °F 100% 30.21 in 10.0 mi North - - N/A   Mostly Cloudy
1:56 AM 56.8 °F 55.9 °F 97% 30.24 in 10.0 mi North - - N/A   Overcast
2:27 AM 57.2 °F 57.2 °F 100% 30.20 in 10.0 mi North - - N/A   Overcast
2:56 AM 57.9 °F 56.8 °F 96% 30.22 in 9.0 mi North - - N/A   Overcast
3:56 AM 56.8 °F 56.8 °F 100% 30.22 in 7.0 mi North - - N/A   Overcast
4:06 AM 57.2 °F 57.2 °F 100% 30.18 in 7.0 mi North - - N/A   Overcast
4:56 AM 56.8 °F 56.8 °F 100% 30.21 in 7.0 mi North - - 0.00 in   Overcast
5:28 AM 57.2 °F 57.2 °F 100% 30.18 in 4.0 mi North - - 0.00 in Rain Light Rain
5:40 AM 57.2 °F 57.2 °F 100% 30.18 in 2.0 mi North - - 0.02 in Rain Light Rain
5:56 AM 56.8 °F 56.8 °F 100% 30.21 in 4.0 mi North - - 0.03 in Rain Light Rain
6:13 AM 57.2 °F 57.2 °F 100% 30.17 in 10.0 mi North - - 0.00 in   Overcast
6:56 AM 56.8 °F 56.8 °F 100% 30.22 in 6.0 mi North - - 0.01 in Rain Light Rain
7:56 AM 56.8 °F 56.8 °F 100% 30.21 in 1.0 mi North - - 0.06 in Rain Heavy Rain
8:03 AM 57.2 °F 57.2 °F 100% 30.18 in 1.8 mi North - - 0.00 in Rain Light Rain
8:05 AM 57.2 °F 57.2 °F 100% 30.18 in 3.0 mi North - - 0.00 in Rain Light Rain
8:13 AM 57.2 °F 57.2 °F 100% 30.18 in 1.8 mi North - - 0.01 in Rain Rain
8:22 AM 57.2 °F 57.2 °F 100% 30.18 in 3.0 mi North - - 0.02 in Rain Light Rain
8:35 AM 57.2 °F 57.2 °F 100% 30.18 in 1.5 mi North - - 0.05 in Rain Heavy Rain
8:37 AM 57.2 °F 57.2 °F 100% 30.18 in 1.0 mi North - - 0.08 in Rain Heavy Rain
8:41 AM 57.2 °F 57.2 °F 100% 30.18 in 0.5 mi North - - 0.10 in Fog , Rain Heavy Rain
8:48 AM 57.2 °F 57.2 °F 100% 30.18 in 1.0 mi North - - 0.12 in Rain Heavy Rain
8:56 AM 56.8 °F 56.8 °F 100% 30.21 in 1.5 mi North - - 0.14 in Rain Heavy Rain
9:08 AM 57.2 °F 57.2 °F 100% 30.18 in 3.0 mi North - - 0.02 in Rain Light Rain
9:34 AM 57.2 °F 57.2 °F 100% 30.17 in 8.0 mi North - - 0.03 in Rain Light Rain
9:56 AM 56.8 °F 56.8 °F 100% 30.21 in 10.0 mi North - - 0.03 in   Overcast
10:05 AM 57.2 °F 57.2 °F 100% 30.17 in 8.0 mi North - - N/A   Overcast
10:31 AM 57.2 °F 57.2 °F 100% 30.17 in 1.8 mi North - - 0.01 in Rain Light Rain
10:39 AM 57.2 °F 57.2 °F 100% 30.17 in 1.0 mi North - - 0.01 in Rain Light Rain
11:00 AM 57.2 °F 57.2 °F 100% 30.17 in 1.2 mi North - - 0.00 in Rain Light Rain
11:04 AM 57.2 °F 57.2 °F 100% 30.17 in 2.0 mi North - - 0.00 in Rain Light Rain
11:18 AM 57.2 °F 57.2 °F 100% 30.17 in 1.2 mi North - - 0.00 in Rain Light Rain
11:25 AM 57.2 °F 57.2 °F 100% 30.17 in 0.8 mi North - - 0.00 in Rain Light Rain
11:34 AM 57.2 °F 57.2 °F 100% 30.16 in 0.5 mi North - - 0.00 in Fog , Rain Light Rain
11:43 AM 57.2 °F 57.2 °F 100% 30.15 in 0.2 mi North - - 0.00 in Fog Fog
11:56 AM 56.8 °F 56.8 °F 100% 30.18 in 0.2 mi North - - 0.00 in Fog Fog
12:28 PM 57.2 °F 57.2 °F 100% 30.13 in 0.2 mi North - - 0.00 in Fog , Rain Light Rain
12:38 PM 57.2 °F 57.2 °F 100% 30.13 in 0.2 mi North - - 0.00 in Fog Fog
12:45 PM 57.2 °F 57.2 °F 100% 30.13 in 0.5 mi North - - 0.00 in Fog Fog
12:56 PM 57.9 °F 57.9 °F 100% 30.16 in 0.2 mi North - - 0.00 in Fog Fog
1:11 PM 57.2 °F 57.2 °F 100% 30.12 in 0.2 mi North - - N/A Fog Fog
1:56 PM 59.0 °F 59.0 °F 100% 30.15 in 0.2 mi North - - N/A Fog Fog
2:29 PM 60.8 °F 60.8 °F 100% 30.11 in 0.8 mi North - - N/A   Overcast
2:32 PM 60.8 °F 60.8 °F 100% 30.10 in 1.2 mi North - - N/A   Overcast
2:34 PM 60.8 °F 60.8 °F 100% 30.10 in 2.0 mi North - - N/A   Overcast
2:43 PM 60.8 °F 60.8 °F 100% 30.10 in 5.0 mi North - - N/A   Overcast
2:56 PM 59.9 °F 59.9 °F 100% 30.14 in 6.0 mi North - - N/A   Overcast
3:11 PM 60.8 °F 60.8 °F 100% 30.10 in 10.0 mi Calm Calm - N/A   Overcast
3:29 PM 60.8 °F 60.8 °F 100% 30.09 in 10.0 mi SSE 5.8 mph - N/A   Mostly Cloudy
3:56 PM 61.0 °F 61.0 °F 100% 30.12 in 10.0 mi SSE 3.5 mph - N/A   Mostly Cloudy
4:14 PM 60.8 °F 60.8 °F 100% 30.08 in 6.0 mi Calm Calm - N/A   Overcast
4:56 PM 59.0 °F 59.0 °F 100% 30.12 in 7.0 mi SSE 6.9 mph - N/A   Overcast
5:42 PM 59.0 °F 59.0 °F 100% 30.10 in 10.0 mi South 6.9 mph - N/A   Overcast
5:56 PM 59.0 °F 59.0 °F 100% 30.14 in 9.0 mi Calm Calm - N/A   Overcast
6:56 PM 59.0 °F 59.0 °F 100% 30.14 in 7.0 mi SSE 5.8 mph - N/A   Overcast
7:56 PM 57.9 °F 57.9 °F 100% 30.16 in 4.0 mi South 6.9 mph - N/A   Overcast
8:12 PM 59.0 °F 59.0 °F 100% 30.15 in 4.0 mi SW 4.6 mph - 0.00 in Rain , Thunderstorm Light Thunderstorms and Rain
8:19 PM 59.0 °F 59.0 °F 100% 30.16 in 3.0 mi Variable 4.6 mph - 0.01 in Rain , Thunderstorm Heavy Thunderstorms and Rain
8:29 PM 55.4 °F 55.4 °F 100% 30.19 in 2.0 mi NNW 13.8 mph 29.9 mph 0.05 in Rain , Thunderstorm Heavy Thunderstorms and Rain
8:39 PM 53.6 °F 53.6 °F 100% 30.19 in 1.2 mi NNW 6.9 mph - 0.16 in Rain , Thunderstorm Heavy Thunderstorms and Rain
8:46 PM 53.6 °F 53.6 °F 100% 30.19 in 1.8 mi NNW 5.8 mph - 0.18 in Rain , Thunderstorm Heavy Thunderstorms and Rain
8:56 PM 52.9 °F 52.9 °F 100% 30.23 in 3.0 mi Calm Calm - 0.20 in Rain , Thunderstorm Heavy Thunderstorms and Rain
9:08 PM 53.6 °F 53.6 °F 100% 30.21 in 4.0 mi Calm Calm - 0.02 in Rain Rain
9:38 PM 53.6 °F 53.6 °F 100% 30.11 in 10.0 mi Variable 5.8 mph - 0.04 in   Scattered Clouds
9:56 PM 52.9 °F 52.9 °F 100% 30.14 in 10.0 mi ESE 5.8 mph - 0.04 in   Clear
10:16 PM 53.6 °F 53.6 °F 100% 30.10 in 10.0 mi East 6.9 mph - N/A   Partly Cloudy
10:56 PM 52.0 °F 52.0 °F 100% 30.16 in 8.0 mi South 5.8 mph - N/A   Scattered Clouds
11:06 PM 51.8 °F 51.8 °F 100% 30.12 in 2.5 mi South 3.5 mph - N/A   Mostly Cloudy
11:09 PM 51.8 °F 51.8 °F 100% 30.12 in 1.0 mi Calm Calm - N/A   Mostly Cloudy
11:12 PM 51.8 °F 51.8 °F 100% 30.13 in 0.5 mi Calm Calm - N/A Fog Fog
11:22 PM 51.8 °F 51.8 °F 100% 30.13 in 0.2 mi Calm Calm - N/A Fog Fog
11:56 PM 52.9 °F 52.9 °F 100% 30.18 in 0.5 mi Calm Calm - N/A Fog Fog